Location: Beneden-Haastrecht
(52.0012°N, 4.7557°E)
Time: 02:24:14
(UTC+00:00)

BREEZE-M R/B - Pass Details

Date: 24 October 2020
Orbit: 309 x 4522 km, 49.7° (Epoch: 27 November)

Event Time Altitude Azimuth Distance (km) Brightness Sun altitude
Rises 19:12:11 0° 274° (W) 2,738 7.7 -25.9°
Reaches altitude 10° 19:13:50 10° 271° (W) 2,077 6.7 -26.1°
Maximum altitude 19:18:26 67° 189° (S) 1,094 4.1 -26.8°
Enters shadow 19:19:43 56° 139° (SE) 1,321 4.3 -27.0°
